Regional Weather Roundup
Issued by NWS Boston, MA

Current Version | Previous Version | Text Only | Print | Product List | Glossary Off
Versions: 1 2 3 4 5 6 7 8 9 10 11 12 13 14 15 16 17 18 19 20 21 22 23 24 25 26 27 28 29 30 31 32 33 34 35 36 37 38 39 40 41 42 43 44 45 46 47 48 49 50
000 ASUS41 KBOX 261410 RWRBOX REGIONAL WEATHER ROUNDUP NATIONAL WEATHER SERVICE TAUNTON MA 900 AM EST SUN FEB 26 2017 NOTE: "FAIR" INDICATES FEW OR NO CLOUDS BELOW 12,000 FEET WITH NO SIGNIFICANT WEATHER AND/OR OBSTRUCTIONS TO VISIBILITY. MAZALL-261500- EASTERN MASSACHUSETTS CITY SKY/WX TMP DP RH WIND PRES REMARKS BOSTON PTSUNNY 40 19 43 W16G28 29.78R WCI 31 BEVERLY CLOUDY 40 22 48 W17G26 29.75R WCI 31 LAWRENCE PTSUNNY 37 20 50 W16G25 29.75R WCI 28 BEDFORD PTSUNNY 38 17 42 W17G26 29.77R WCI 28 BLUE HILL N/A 36 20 52 W23G35 29.74R WCI 24 NORWOOD PTSUNNY 40 22 48 W24G33 29.80R WCI 29 MARSHFIELD SUNNY 41 19 42 NW13G23 29.77R PLYMOUTH MOSUNNY 39 21 48 W18G24 29.78R WCI 30 TAUNTON MOSUNNY 40 19 43 W17G26 29.80R WCI 31 NEW BEDFORD SUNNY 41 19 41 W21G30 29.80R WCI 32 $$ MAZALL-261500- CAPE COD AND THE ISLANDS CITY SKY/WX TMP DP RH WIND PRES REMARKS FALMOUTH MOSUNNY 39 21 48 MISG 29.80R HYANNIS PTSUNNY 41 23 48 W13G23 29.77R CHATHAM CLOUDY 40 25 55 W10G20 29.78R PROVINCETOWN PTSUNNY 40 24 53 W21G31 29.77R WCI 30 NANTUCKET SUNNY 40 22 48 W24G35 29.80R WCI 29 MARTHAS VNYRD SUNNY 40 20 44 W18G28 29.81R WCI 31 $$ MAZALL-261500- CENTRAL AND WESTERN MASSACHUSETTS CITY SKY/WX TMP DP RH WIND PRES REMARKS WORCESTER CLOUDY 32 16 51 NW26G36 29.78R WCI 18 FITCHBURG CLOUDY 37 20 50 W16G28 29.79R WCI 28 ORANGE PTSUNNY 33 20 58 W17G28 29.80R WCI 22 SPRINGFIELD MOSUNNY 36 17 46 NW20G26 29.84R WCI 26 WESTFIELD PTSUNNY 35 18 49 NW17G24 29.86R WCI 25 NORTH ADAMS CLOUDY 32 19 58 W22G32 29.85R WCI 19 PITTSFIELD CLOUDY 28 18 66 W21G36 29.83R WCI 15 $$ RIZALL-261500- RHODE ISLAND CITY SKY/WX TMP DP RH WIND PRES REMARKS PROVIDENCE MOSUNNY 39 18 42 W12G23 29.83R WCI 32 NEWPORT MOSUNNY 38 20 48 W18G26 29.82R WCI 28 BLOCK ISLAND MOSUNNY 39 23 52 NW17G25 29.86R WCI 30 SMITHFIELD PTSUNNY 36 19 50 W17G31 29.81R WCI 26 WESTERLY MOSUNNY 40 16 37 NW15G26 29.86R WCI 32 $$ CTZALL-261500- CONNECTICUT CITY SKY/WX TMP DP RH WIND PRES REMARKS BRADLEY INTL PTSUNNY 36 18 48 W16G28 29.89R WCI 26 HARTFORD CLOUDY 37 17 44 NW21G32 29.91R WCI 26 BRIDGEPORT CLOUDY 39 19 44 W20G26 29.92R WCI 29 DANBURY PTSUNNY 34 15 46 W16G26 29.92R WCI 24 GROTON PTSUNNY 39 19 44 NW21G31 29.87R WCI 29 NEW HAVEN CLOUDY 37 20 50 NW12G23 29.91R WCI 29 CHESTER CLOUDY 36 18 48 NW20G29 29.87R WCI 25 MERIDEN CLOUDY 38 17 42 NW14G25 29.91R WCI 30 WILLIMANTIC CLOUDY 38 18 44 NW14G29 29.88R WCI 30 OXFORD PTSUNNY 34 16 47 NW12G23 29.89R WCI 25 $$ MEZ002-015-021-024-NHZ003-005-008-011-012-014-VTZ005-008-261500- NORTHERN NEW ENGLAND CITY SKY/WX TMP DP RH WIND PRES REMARKS PORTLAND ME MOSUNNY 38 24 57 W20 29.67R WCI 28 BANGOR ME PTSUNNY 37 23 56 W13G18 29.57R WCI 29 CONCORD NH PTSUNNY 36 16 44 W13G29 29.75R WCI 27 MANCHESTER NH PTSUNNY 37 18 46 NW13G22 29.75R WCI 29 NASHUA NH CLOUDY 37 18 46 W20G29 29.77R WCI 27 PORTSMOUTH NH MOSUNNY 39 19 45 W18G28 29.71R WCI 29 JAFFREY NH CLOUDY 33 15 47 W17G26 29.76R WCI 22 KEENE NH CLOUDY 34 17 50 NW9G18 29.80R WCI 27 BURLINGTON VT PTSUNNY 31 14 49 W16G28 29.83R WCI 20 MT. WASHINGTON SNOWSHWR 3 3 100 W81G86 N/A VSB 1/16WCI -32 $$ NYZ052-076-261500- EASTERN NEW YORK CITY SKY/WX TMP DP RH WIND PRES REMARKS ALBANY CLOUDY 33 19 56 W17 29.93R WCI 22 NEW YORK CITY CLOUDY 40 20 44 NW24G35 29.96R WCI 29 $$ ANZALL-261500- MARINE OBSERVATIONS STATION/POSITION TIME TEMP WIND PRES VSBY WAVE AIR SEA DIR/SP/G HT/PER (UTC) (F) (DEG/KT/KT) (MB) (MI) (FT/S) BOSTON BUOY 1250 40 42 280/ 25/ 31 1005.6 4/ 4 BUZZARDS BAY 1300 38 300/ 28/ 30 1009.7R NANTUCKET SOUND 1250 40 40 280/ 25/ 31 1007.2 4/ 4 MASS BAY-STELLWA 1304 40 42 290/ 21/ 25 1005.2R 5/ 5 ISLE OF SHOALS 1300 38 270/ 25/ 28 1004.9R S OF BLOCK IS 1355 43 N/A 7/11 $$ ......................KEY......................... SKY/WX - SKY CONDITION/PRESENT WEATHER TMP - TEMPERATURE IN FAHRENHEIT DWPT - DEWPOINT IN FAHRENHEIT RH - RELATIVE HUMIDITY IN PERCENT WIND - DIRECTION AND SPEED IN MPH PRES - MEAN SEA LEVEL PRESSURE IN INCHES OF HG WCI - WIND CHILL INDEX VSB - VISIBILITY IN MILES HX - HEAT INDEX TC - TEMPERATURE IN CELSIUS VRB - VARIABLE WIND DIRECTION N/A - NOT AVAILABLE

USA.gov is the U.S. government's official web portal to all federal, state and local government web resources and services.